{"data":{"norad_id":66364,"intl_designator":"2025-254S","name":"STARLINK-35797","alt_names":[],"object_type":"PAYLOAD","status":"ACTIVE","operator":null,"country":"US","launch_date":"2025-11-06","launch_site_code":"AFWTR","launch_vehicle":null,"mission":null,"orbit_class":"UNKNOWN","rcs_meters":null,"size_class":null,"mass_kg":null,"dimensions":null,"purposes":["comms"],"wikipedia_slug":null,"has_3d_model":false,"image_url":null,"decayed_at":null,"tle_current":{"epoch":"2026-09-20T20:56:35.490336Z","epoch_age_seconds":61265,"freshness":"FRESH","line1":"1 66364U 25254S   26263.87263299  .00023761  00000+0  71172-3 0  9997","line2":"2 66364  53.1599  44.1058 0000990  46.1123 313.9961 15.34418315 48881","mean_motion":15.34418315,"eccentricity":9.9e-5,"inclination_deg":53.1599,"raan_deg":44.1058,"arg_perigee_deg":46.1123,"mean_anomaly_deg":313.9961,"bstar":0.00071172,"rev_number":4888,"period_min":93.846637903302,"perigee_km":461.97156691419,"apogee_km":463.32604250352,"semimajor_km":6840.7858047089,"source":"CELESTRAK","updated_at":"2026-09-21T09:00:35.882363Z"}}}